This demonstration page uses our WeatherBlox Daily Observations layout. Learn more.

Left ArrowRight Arrow

Hourly Observations for March 20, 2020

Temp ( °F °C ) Dew Point ( °F °C ) Humidity (%) Winds ( mph kmh ) Pressure ( in mb ) Visibility ( mi km ) Precip ( " mm )
12:15 am 00:15 Mostly Cloudy 63 17 63 17 100 100 SSW 17 28 29.85 1011 10 16 N/A
12:35 am 00:35 Cloudy 64 18 64 18 100 100 SW 21 33 29.86 1011 10 16 N/A
12:55 am 00:55 Cloudy 64 18 64 18 100 100 SSW 18 30 29.86 1011 10 16 N/A
1:15 am 01:15 Mostly Cloudy 64 18 64 18 100 100 SW 17 28 29.86 1011 10 16 N/A
1:35 am 01:35 Mostly Cloudy 64 18 64 18 100 100 SSW 18 30 29.85 1011 10 16 N/A
1:55 am 01:55 Cloudy 64 18 64 18 100 100 SSW 18 30 29.84 1011 10 16 N/A
1:56 am 01:56 Cloudy 64 18 64 18 100 100 SW 17 28 29.84 1011 10 16 N/A
2:15 am 02:15 Cloudy 64 18 64 18 100 100 SSW 15 24 29.85 1011 10 16 N/A
2:16 am 02:16 Cloudy 64 18 64 18 100 100 SSW 16 26 29.85 1011 10 16 N/A
2:35 am 02:35 Cloudy 64 18 64 18 100 100 SW 15 24 29.84 1011 10 16 N/A
2:55 am 02:55 Cloudy 64 18 64 18 100 100 SSW 13 20 29.82 1010 10 16 N/A
3:15 am 03:15 Cloudy 64 18 64 18 100 100 SSW 17 28 29.82 1010 10 16 N/A
3:16 am 03:16 Cloudy 64 18 64 18 100 100 SSW 15 24 29.82 1010 10 16 N/A
3:35 am 03:35 Cloudy 64 18 64 18 100 100 SW 18 30 29.82 1010 10 16 N/A
3:56 am 03:56 Cloudy 64 18 64 18 100 100 SSW 14 22 29.81 1010 10 16 N/A
4:15 am 04:15 Cloudy 64 18 64 18 100 100 SSW 16 26 29.80 1009 10 16 N/A
4:35 am 04:35 Cloudy 64 18 64 18 100 100 SSW 17 28 29.78 1009 5 8 N/A
4:55 am 04:55 Cloudy 64 18 64 18 100 100 SSW 14 22 29.78 1009 10 16 N/A
5:15 am 05:15 Cloudy 64 18 64 18 100 100 SW 16 26 29.79 1009 10 16 N/A
5:36 am 05:36 Cloudy 64 18 64 18 100 100 SW 14 22 29.79 1009 10 16 N/A
5:55 am 05:55 Cloudy 64 18 64 18 100 100 SW 18 30 29.80 1009 10 16 N/A
6:15 am 06:15 Cloudy 64 18 64 18 100 100 SW 15 24 29.80 1009 10 16 N/A
6:36 am 06:36 Cloudy 64 18 64 18 100 100 SW 15 24 29.80 1009 10 16 N/A
6:55 am 06:55 Cloudy 64 18 64 18 100 100 SW 12 19 29.81 1010 10 16 N/A
7:15 am 07:15 Cloudy 64 18 64 18 100 100 WSW 15 24 29.81 1010 10 16 N/A
7:35 am 07:35 Cloudy 64 18 64 18 100 100 WSW 15 24 29.82 1010 10 16 N/A
7:56 am 07:56 Mostly Cloudy 64 18 64 18 100 100 WSW 17 28 29.83 1010 10 16 N/A
8:16 am 08:16 Mostly Cloudy 64 18 64 18 100 100 WSW 17 28 29.85 1011 10 16 N/A
8:36 am 08:36 Mostly Cloudy 64 18 64 18 100 100 WSW 16 26 29.85 1011 10 16 N/A
8:56 am 08:56 Mostly Cloudy 64 18 64 18 100 100 WSW 16 26 29.87 1012 10 16 N/A
9:15 am 09:15 Mostly Cloudy 64 18 64 18 100 100 WSW 18 30 29.88 1012 10 16 N/A
9:36 am 09:36 Mostly Cloudy 64 18 64 18 100 100 W 15 24 29.90 1013 10 16 N/A
9:56 am 09:56 Mostly Cloudy 64 18 64 18 100 100 WSW 17 28 29.91 1013 10 16 N/A
10:15 am 10:15 Mostly Cloudy 64 18 63 17 94 94 W 18 30 29.92 1013 10 16 N/A
10:35 am 10:35 Mostly Cloudy 66 19 63 17 88 88 W 24 39 29.92 1013 10 16 N/A
10:55 am 10:55 Mostly Cloudy 64 18 61 16 88 88 W 23 37 29.94 1014 10 16 N/A
11:16 am 11:16 Cloudy 55 13 55 13 100 100 NW 23 37 30.01 1016 10 16 N/A
11:35 am 11:35 Cloudy 50 10 50 10 100 100 NNW 20 31 30.05 1018 10 16 N/A
11:55 am 11:55 Cloudy 48 9 48 9 100 100 NNW 17 28 30.06 1018 10 16 N/A
12:16 pm 12:16 Cloudy 50 10 50 10 100 100 NNW 18 30 30.06 1018 10 16 N/A
12:35 pm 12:35 Cloudy 50 10 50 10 100 100 NNW 13 20 30.07 1018 10 16 N/A
12:55 pm 12:55 Cloudy 52 11 52 11 100 100 NW 15 24 30.08 1019 10 16 N/A
1:15 pm 13:15 Cloudy 52 11 50 10 94 94 NW 17 28 30.09 1019 10 16 N/A
1:35 pm 13:35 Cloudy 50 10 50 10 100 100 NNW 16 26 30.11 1020 10 16 N/A
1:56 pm 13:56 Cloudy 48 9 48 9 100 100 NW 16 26 30.12 1020 10 16 N/A
2:15 pm 14:15 Cloudy 46 8 46 8 100 100 NNW 17 28 30.14 1021 10 16 N/A
2:35 pm 14:35 Cloudy 46 8 45 7 93 93 NNW 20 31 30.15 1021 10 16 N/A
2:55 pm 14:55 Cloudy 46 8 45 7 93 93 NW 16 26 30.15 1021 10 16 N/A
3:16 pm 15:16 Cloudy 46 8 46 8 100 100 NW 16 26 30.15 1021 10 16 N/A
3:35 pm 15:35 Cloudy 45 7 43 6 93 93 NNW 18 30 30.16 1021 10 16 N/A
3:56 pm 15:56 Cloudy 45 7 43 6 93 93 NNW 15 24 30.18 1022 10 16 N/A
4:15 pm 16:15 Cloudy 45 7 41 5 87 87 NNW 15 24 30.20 1023 10 16 N/A
4:35 pm 16:35 Cloudy 43 6 41 5 93 93 NW 16 26 30.22 1024 10 16 N/A
4:55 pm 16:55 Cloudy 43 6 41 5 93 93 N 18 30 30.23 1024 10 16 N/A
5:15 pm 17:15 Cloudy 41 5 41 5 100 100 NNW 18 30 30.25 1024 10 16 N/A
5:16 pm 17:16 Cloudy 41 5 41 5 100 100 NNW 17 28 30.25 1024 10 16 N/A
5:35 pm 17:35 Cloudy 41 5 39 4 93 93 NNW 16 26 30.26 1025 10 16 N/A
5:36 pm 17:36 Cloudy 41 5 39 4 93 93 NNW 17 28 30.26 1025 10 16 N/A
5:55 pm 17:55 Cloudy 41 5 39 4 93 93 N 18 30 30.27 1025 10 16 N/A
5:56 pm 17:56 Cloudy 41 5 39 4 93 93 NNW 17 28 30.27 1025 10 16 N/A
6:15 pm 18:15 Cloudy 41 5 39 4 93 93 N 17 28 30.28 1025 10 16 N/A
6:35 pm 18:35 Cloudy 39 4 37 3 93 93 N 18 30 30.29 1026 10 16 N/A
6:55 pm 18:55 Cloudy 39 4 37 3 93 93 N 17 28 30.29 1026 10 16 N/A
7:15 pm 19:15 Cloudy 39 4 37 3 93 93 NNW 17 28 30.30 1026 10 16 N/A
7:35 pm 19:35 Cloudy 39 4 37 3 93 93 N 16 26 30.31 1026 10 16 N/A
7:55 pm 19:55 Cloudy 37 3 37 3 100 100 N 17 28 30.32 1027 10 16 N/A
8:15 pm 20:15 Cloudy 37 3 36 2 93 93 N 17 28 30.32 1027 10 16 N/A
8:35 pm 20:35 Cloudy 37 3 36 2 93 93 N 20 31 30.34 1028 10 16 N/A
8:55 pm 20:55 Cloudy 36 2 36 2 100 100 N 18 30 30.37 1028 10 16 N/A
9:15 pm 21:15 Cloudy 36 2 36 2 100 100 N 20 31 30.38 1029 10 16 N/A
9:35 pm 21:35 Cloudy 34 1 34 1 100 100 N 16 26 30.40 1030 10 16 N/A
9:55 pm 21:55 Cloudy 34 1 34 1 100 100 N 14 22 30.42 1030 10 16 N/A
10:15 pm 22:15 Cloudy 34 1 32 undefined 93 93 N 18 30 30.42 1030 10 16 N/A
10:35 pm 22:35 Cloudy 34 1 32 undefined 93 93 N 15 24 30.43 1031 10 16 N/A
10:36 pm 22:36 Cloudy 34 1 32 undefined 93 93 N 16 26 30.43 1031 10 16 N/A
10:55 pm 22:55 Cloudy 32 undefined 30 -1 93 93 N 15 24 30.44 1031 10 16 N/A
11:15 pm 23:15 Cloudy 32 undefined 30 -1 93 93 N 17 28 30.44 1031 10 16 N/A
11:35 pm 23:35 Cloudy 30 -1 28 -2 93 93 N 15 24 30.46 1031 10 16 N/A
11:55 pm 23:55 Mostly Cloudy 30 -1 28 -2 93 93 NNW 14 22 30.46 1031 10 16 N/A
11:56 pm 23:56 Mostly Cloudy 30 -1 30 -1 100 100 N 14 22 30.46 1031 10 16 N/A

Powered by AerisWeather